This is the latest recevied weather packets stored in our database for station/object KY0TEQ-13. If no packets are shown the sender has not sent any weather packets the latest 10 day(s).
| Time | Temp. | Humidity | Pressure | Rain* | Wind** | Luminosity | Snow |
|---|---|---|---|---|---|---|---|
| 1777945509 | 13.89° C | 26% | 1296.8 hPa | 0 mm | - | 9 W/m² | - |
| 1777945206 | 13.89° C | 25% | 1296.6 hPa | 0 mm | - | 11 W/m² | - |
| 1777944903 | 14.44° C | 25% | 1296.8 hPa | 0 mm | - | 14 W/m² | - |
| 1777944600 | 14.44° C | 23% | 1296.6 hPa | 0 mm | - | 20 W/m² | - |
| 1777944298 | 15° C | 23% | 1296.6 hPa | 0 mm | - | 25 W/m² | - |
| 1777943995 | 15° C | 23% | 1296.6 hPa | 0 mm | - | 31 W/m² | - |
| 1777943690 | 15° C | 23% | 1296.6 hPa | 0 mm | - | 34 W/m² | - |
| 1777943387 | 15° C | 23% | 1296.8 hPa | 0 mm | - | 38 W/m² | - |
| 1777943083 | 15° C | 22% | 1297.1 hPa | 0 mm | - | 44 W/m² | - |
| 1777942779 | 15° C | 23% | 1296.8 hPa | 0 mm | - | 54 W/m² | - |
| 1777942476 | 15.56° C | 22% | 1296.7 hPa | 0 mm | - | 58 W/m² | - |
| 1777942174 | 15.56° C | 22% | 1297 hPa | 0 mm | - | 69 W/m² | - |
| 1777941870 | 15.56° C | 20% | 1296.8 hPa | 0 mm | - | 78 W/m² | - |
| 1777941567 | 15.56° C | 21% | 1296.7 hPa | 0 mm | - | 86 W/m² | - |
| 1777941265 | 15.56° C | 21% | 1296.8 hPa | 0 mm | - | 82 W/m² | - |
| 1777940960 | 15.56° C | 20% | 1297.1 hPa | 0 mm | - | 90 W/m² | - |
| 1777940657 | 15.56° C | 21% | 1297.1 hPa | 0 mm | - | 98 W/m² | - |
| 1777940356 | 15.56° C | 20% | 1297.2 hPa | 0 mm | - | 110 W/m² | - |
| 1777940053 | 15.56° C | 19% | 1297 hPa | 0 mm | - | 123 W/m² | - |
| 1777939750 | 15.56° C | 19% | 1297.1 hPa | 0 mm | - | 114 W/m² | - |
| 1777939448 | 16.11° C | 20% | 1297.3 hPa | 0 mm | - | 110 W/m² | - |
| 1777939144 | 16.11° C | 20% | 1297.3 hPa | 0 mm | - | 127 W/m² | - |
| 1777938841 | 16.11° C | 20% | 1297.2 hPa | 0 mm | - | 129 W/m² | - |
| 1777938537 | 16.11° C | 20% | 1297.4 hPa | 0 mm | - | 150 W/m² | - |
| 1777938235 | 16.11° C | 20% | 1297.7 hPa | 0 mm | - | 151 W/m² | - |
* Rain latest hour (hover to see other rain measurements)
** Current wind speed in m/s (hover to see current wind gust speed)